Regional Weather Roundup
Issued by NWS New Orleans/Baton Rouge, LA

Home | Current Version | Previous Version | Text Only | Print | Product List | Glossary On
Versions: 1 2 3 4 5 6 7 8 9 10 11 12 13 14 15 16 17 18 19 20 21 22 23 24 25 26 27
000
ASUS44 KLIX 240213
RWRLIX
NEW ORLEANS REGIONAL WEATHER ROUNDUP
NATIONAL WEATHER SERVICE NEW ORLEANS LA
900 PM CDT MON OCT 23 2017

NOTE: "FAIR" INDICATES FEW OR NO CLOUDS BELOW 12,000 FEET WITH NO
      SIGNIFICANT WEATHER AND/OR OBSTRUCTIONS TO VISIBILITY.
      SKY/WX - SKY CONDITION AND SIGNIFICANT WEATHER.
      TMP - AIR TEMPERATURE.     DP    - DEWPOINT TEMPERATURE.
      RH  - RELATIVE HUMIDITY.   PRES  - PRESSURE.
      HI  - HEAT INDEX.          WCI   - WIND CHILL INDEX.

*  THESE STATIONS ARE NOT NWS OR FAA STATIONS AND ARE NOT UNDER
   NWS QUALITY CONTROL.

LAZ038-040-048-061>063-065>067-069-240300-
SOUTHEAST LOUISIANA

CITY           SKY/WX    TMP DP  RH WIND       PRES   REMARKS
N.O. INTL ARPT CLEAR     66  52  60 N5        30.05R
N.O. LAKEFRONT CLEAR     69  48  47 N12       30.05R
N.O. DOWNTOWN*   N/A     69  46  43 N3        30.06R
RESERVE*         N/A     59  56  87 CALM      30.05S
SLIDELL        CLEAR     56  52  86 CALM      30.04R
BATON ROUGE    CLEAR     57  53  86 CALM      30.05R
BOOTHVILLE     CLEAR     74  51  44 N6        30.04R
BELLE CHASSE   CLEAR     64  52  64 N5        30.05R
BOGALUSA*        N/A     55  51  87 CALM      30.06R
GALLIANO*      CLEAR     59  52  77 CALM      30.05R
NEW ROADS*       N/A     57  55  92 CALM      30.05S
GONZALES*        N/A     55  51  85 CALM      30.04S
HAMMOND*       CLEAR     54  50  87 CALM      30.04S
HOUMA*         CLEAR    N/A N/A N/A CALM      30.06R
PORT FOURCHON* CLEAR     68  52  56 N6        30.06R

$$

MSZ070-080>082-240300-
SOUTHERN MISSISSIPPI

CITY           SKY/WX    TMP DP  RH WIND       PRES   REMARKS
MCCOMB         CLEAR     54  50  86 CALM      30.05R
GULFPORT       CLEAR     59  52  77 NW3       30.02R
BILOXI         CLEAR     62  50  64 CALM      30.03R
PASCAGOULA     CLEAR     57  53  86 CALM      30.03R

$$

COASTAL OBSERVATIONS
LAKE AND NEARSHORE STATIONS

STATION/POSITION TIME  TEMP    WIND        PRES    WAVE
                       AIR SEA DIR/SP/G            HT/PER
                 (UTC) (F)     (DEG/KT/KT) (MB)    (FT/S)
PASCAGOULA       0148   62                 1016.2
WAVELAND YACHT   0148                      1017.0
GRAND ISLE       0148   71 76              1017.4
SOUTHWEST PASS   0148   73 78              1017.3
NEW CANAL        0148   70 74              1017.2
SHELL BEACH      0148                      1017.3

OFFSHORE STATIONS

STATION/POSITION TIME  TEMP    WIND        PRES    WAVE
                       AIR SEA DIR/SP/G            HT/PER
                 (UTC) (F)     (DEG/KT/KT) (MB)    (FT/S)
64 S DAUPHIN ISL 0150   74 81  350/ 16/ 19 1015.8    4/ 5

$$





USA.gov is the U.S. government's official web portal to all federal, state and local government web resources and services.